Regional Weather Roundup
Issued by NWS

Home | Current Version | Previous Version | Text Only | Print | Product List | Glossary On
Versions: 1 2 3 4 5 6 7 8 9 10 11 12 13 14 15 16 17 18 19 20 21 22 23 24 25 26 27
000
ASUS44 KJAN 201510
RWRMS

MISSISSIPPI HOURLY WEATHER ROUNDUP
NATIONAL WEATHER SERVICE JACKSON MS
1000 AM CDT SUN AUG 20 2017

NOTE: "FAIR: INDICATES FEW OR NO CLOUDS BELOW 12,000 FEET WITH NO
SIGNIFICANT WEATHER AND/OR OBSTRUCTIONS TO VISIBILITY.

MSZ001>002-007>008-010>013-018>021-025>028-034>036-201600-
NORTHWEST MISSISSIPPI

CITY           SKY/WX    TMP DP  RH WIND       PRES   REMARKS
BATESVILLE     FAIR      85  75  71 CALM      30.08R HX  94
CLARKSDALE       N/A     88  81  79 CALM      30.07R HX 105
CLEVELAND      FAIR      86  77  75 CALM      30.07R HX  96
GREENWOOD      SUNNY     85  76  74 CALM      30.08R HX  94
GREENVILLE     SUNNY     87  74  64 CALM      30.06R HX  95
OLIVE BRANCH   MOSUNNY  N/A N/A N/A CALM      30.08R
TUNICA           N/A     84  77  79 CALM      30.08R HX  94
WINONA         FAIR      83  77  82 CALM      30.09R HX  92
$$

MSZ003>006-009-014>017-022>024-029>033-037>039-201600-
NORTHEAST MISSISSIPPI

CITY           SKY/WX    TMP DP  RH WIND       PRES   REMARKS
COLUMBUS AFB   SUNNY     87  83  87 CALM      30.07R HX 107
GOLDN TRIANGLE SUNNY     86  73  66 CALM      30.04R HX  93
STARKVILLE     FAIR      86  75  70 CALM      30.10R HX  95
TUPELO         SUNNY     90  74  59 NW3       30.08R HX  99
$$

MSZ040-058-201600-
CENTRAL MISSISSIPPI

CITY           SKY/WX    TMP DP  RH WIND       PRES   REMARKS
JACKSON INTL   SUNNY     85  74  69 CALM      30.09R HX  92
JACKSON HAWKNS SUNNY     84  75  74 W3        30.09R HX  92
MADISON        FAIR      82  72  69 CALM      30.08S
MERIDIAN KEY   SUNNY     88  77  69 VRB7      30.09R HX 100
MERIDIAN NAS   SUNNY     88  76  67 E6        30.09R HX  99
RAYMOND        FAIR      86  75  70 CALM      30.08R HX  95
VICKSBURG VKS  SUNNY     84  75  74 CALM      30.06S HX  92
$$

MSZ059>079-201600-
SOUTH MISSISSIPPI

CITY           SKY/WX    TMP DP  RH WIND       PRES   REMARKS
COLUMBIA       FAIR      82 N/A N/A N3        30.10S
HATTIESBURG    SUNNY     82  75  79 CALM      30.08S
LAUREL         FAIR      83  75  79 CALM      30.08S HX  90
MCCOMB         SUNNY     84  73  69 CALM      30.08R HX  90
NATCHEZ        SUNNY     84  75  74 VRB3      30.08R HX  92
PINE BELT      SUNNY     82  73  74 CALM      30.09
$$

MSZ080>082-201600-
COASTAL MISSISSIPPI

CITY           SKY/WX    TMP DP  RH WIND       PRES   REMARKS
BAY ST LOUIS   SUNNY     84  75  74 CALM      30.06S HX  92
BILOXI         SUNNY     84  73  69 NE5       30.06S HX  90
PASCAGOULA     SUNNY     86  73  65 CALM      30.06S HX  93
GULFPORT       SUNNY     85  73  67 NE7       30.05S HX  91
$$

LAZ007>009-015>016-023>026-201600-
NORTHEAST LOUISIANA

CITY           SKY/WX    TMP DP  RH WIND       PRES   REMARKS
BASTROP        FAIR      85  77  77 CALM      30.07R HX  94
TALLULAH/VBURG SUNNY     84  75  74 CALM      30.07R HX  92
VIDALIA          N/A    N/A N/A N/A MISG      30.06R
$$




USA.gov is the U.S. government's official web portal to all federal, state and local government web resources and services.